period_start,C,m1,H,J0,J1,J2,J3,J4,J5,JA,JB,JC,JD,JJ,JK,JN,#
2015-08-27 00:03:55,0.01,0.10,0.00,25.12,29.13,31.93,14.34,49.45,1015.08,2031.97,3423.96,3197.11,3501.99,599.74,590.73,4.22,0000 0000 0000 0000 000000
2015-08-27 00:08:56,0.02,0.10,0.00,25.11,29.13,31.91,14.42,49.25,1015.12,2031.96,3423.30,3197.00,3501.82,600.01,591.07,4.27,0000 0000 0000 0000 000000
2015-08-27 00:13:57,0.01,0.10,0.00,25.11,29.13,31.91,14.41,49.33,1015.15,2031.98,3423.02,3196.98,3501.18,599.72,590.70,4.32,0000 0000 0000 0000 000000
2015-08-27 00:18:58,0.00,0.10,0.00,25.12,29.13,31.92,14.43,49.40,1015.15,2031.96,3423.01,3196.96,3501.02,600.19,591.08,4.37,0000 0000 0000 0000 000000
2015-08-27 00:23:59,0.01,0.10,0.00,25.12,29.13,31.90,14.35,49.23,1015.15,2031.94,3422.87,3196.68,3500.99,599.95,590.92,4.42,0000 0000 0000 0000 000000
2015-08-27 00:29:01,0.03,0.10,0.00,25.13,29.12,31.91,14.45,49.47,1015.15,2031.95,3422.23,3196.13,3500.72,600.36,591.28,4.47,0000 0000 0000 0000 000000
2015-08-27 00:34:02,0.00,0.10,0.00,25.12,29.12,31.90,14.40,49.40,1015.15,2031.88,3422.00,3196.00,3500.07,600.06,590.94,4.52,0000 0000 0000 0000 000000
2015-08-27 00:39:03,0.01,0.10,0.00,25.12,29.12,31.91,14.42,49.52,1015.15,2031.91,3421.95,3196.00,3500.00,600.04,590.98,4.57,0000 0000 0000 0000 000000
2015-08-27 00:44:04,0.01,0.10,0.00,25.15,29.12,31.90,14.46,49.58,1015.15,2031.93,3421.32,3195.96,3499.99,600.48,591.25,4.62,0000 0000 0000 0000 000000
2015-08-27 00:49:06,0.01,0.10,0.00,25.15,29.13,31.90,14.48,49.48,1015.15,2031.89,3421.06,3195.62,3499.71,600.00,590.96,4.67,0000 0000 0000 0000 000000
2015-08-27 00:54:07,0.00,0.10,0.00,25.17,29.13,31.90,14.34,49.42,1015.15,2031.71,3420.93,3195.06,3499.06,599.85,590.83,4.72,0000 0000 0000 0000 000000
2015-08-27 00:59:08,-0.01,0.10,0.00,25.19,29.14,31.90,14.38,49.56,1015.15,2031.45,3420.42,3195.00,3498.99,600.09,590.89,4.77,0000 0000 0000 0000 000000
2015-08-27 01:04:09,0.01,0.10,0.00,25.21,29.15,31.88,14.42,49.52,1015.15,2031.36,3420.02,3194.99,3498.76,600.02,590.79,4.82,0000 0000 0000 0000 000000
2015-08-27 01:09:11,0.01,0.10,0.00,25.22,29.15,31.88,14.39,49.38,1015.14,2031.45,3419.99,3194.89,3498.30,600.10,590.91,4.87,0000 0000 0000 0000 000000
2015-08-27 01:14:12,0.04,0.11,0.00,25.24,29.15,31.89,14.41,49.55,1015.12,2031.54,3419.76,3194.56,3498.01,599.87,590.57,4.92,0000 0000 0000 0000 000000
2015-08-27 01:19:13,-0.01,0.11,0.00,25.25,29.15,31.89,14.38,49.52,1015.09,2031.27,3419.09,3194.06,3497.99,599.85,590.51,4.97,0000 0000 0000 0000 000000
2015-08-27 01:24:15,0.01,0.11,0.00,25.26,29.17,31.89,14.36,49.53,1015.10,2031.31,3418.98,3194.00,3497.80,599.70,590.27,5.02,0000 0000 0000 0000 000000
2015-08-27 01:29:16,0.01,0.11,0.00,25.28,29.17,31.88,14.35,49.32,1015.15,2031.25,3418.57,3193.99,3497.11,599.97,590.54,5.07,0000 0000 0000 0000 000000
2015-08-27 01:34:17,0.00,0.11,0.00,25.31,29.17,31.89,14.30,49.37,1015.15,2031.17,3418.06,3193.81,3497.01,599.92,590.62,5.12,0000 0000 0000 0000 000000
2015-08-27 01:39:19,0.03,0.11,0.00,25.32,29.18,31.88,14.38,49.53,1015.15,2031.31,3417.98,3193.27,3496.98,599.77,590.32,5.17,0000 0000 0000 0000 000000
2015-08-27 01:44:20,-0.00,0.11,0.00,25.35,29.19,31.89,14.39,49.44,1015.16,2031.26,3417.64,3193.03,3496.60,600.08,590.49,5.22,0000 0000 0000 0000 000000
2015-08-27 01:49:21,0.00,0.11,0.00,25.37,29.20,31.90,14.39,49.40,1015.16,2031.10,3417.04,3193.00,3496.04,600.19,590.58,5.27,0000 0000 0000 0000 000000
2015-08-27 01:54:22,0.00,0.11,0.00,25.38,29.20,31.91,14.41,49.44,1015.16,2031.14,3416.86,3192.85,3495.98,600.28,590.77,5.32,0000 0000 0000 0000 000000
2015-08-27 01:59:23,0.03,0.11,0.00,25.40,29.21,31.88,14.38,49.42,1015.15,2031.05,3416.12,3192.16,3495.51,600.18,590.59,5.37,0000 0000 0000 0000 000000
2015-08-27 02:04:25,0.00,0.11,0.00,25.42,29.22,31.88,14.28,49.58,1015.15,2031.04,3416.00,3192.01,3495.04,599.87,590.12,5.42,0000 0000 0000 0000 000000
2015-08-27 02:09:26,0.00,0.11,0.00,25.45,29.22,31.88,14.38,49.64,1015.15,2031.02,3415.89,3192.00,3495.00,599.91,590.37,5.47,0000 0000 0000 0000 000000
2015-08-27 02:14:27,0.01,0.11,0.00,25.47,29.23,31.90,14.28,49.48,1015.17,2031.01,3415.13,3191.92,3494.86,599.92,590.41,5.52,0000 0000 0000 0000 000000
2015-08-27 02:19:28,0.03,0.11,0.00,25.49,29.25,31.89,14.34,49.52,1015.19,2031.01,3414.99,3191.34,3494.23,599.99,590.23,5.57,0000 0000 0000 0000 000000
2015-08-27 02:24:29,0.00,0.12,0.00,25.51,29.25,31.90,14.29,49.38,1015.22,2031.00,3414.84,3191.02,3494.00,599.88,590.01,5.63,0000 0000 0000 0000 000000
2015-08-27 02:29:31,0.01,0.12,0.00,25.54,29.26,31.93,14.26,49.39,1015.51,2031.00,3414.36,3191.00,3493.98,599.96,590.34,5.68,0000 0000 0000 0000 000000
2015-08-27 02:34:32,0.00,0.12,0.00,25.56,29.27,31.92,14.37,49.56,1015.62,2031.00,3414.01,3190.99,3493.79,599.89,590.19,5.73,0000 0000 0000 0000 000000
2015-08-27 02:39:33,0.02,0.12,0.00,25.58,29.27,31.94,14.32,49.52,1015.63,2031.00,3413.83,3190.64,3493.16,599.89,590.19,5.78,0000 0000 0000 0000 000000
2015-08-27 02:44:35,0.02,0.12,0.00,25.61,29.30,31.92,14.35,49.49,1015.63,2030.97,3413.12,3190.03,3492.99,599.88,590.07,5.83,0000 0000 0000 0000 000000
2015-08-27 02:49:36,0.01,0.12,0.00,25.62,29.30,31.95,14.38,49.43,1015.64,2030.98,3412.99,3190.00,3492.74,599.68,589.82,5.88,0000 0000 0000 0000 000000
2015-08-27 02:54:37,0.03,0.12,0.00,25.63,29.32,31.96,14.40,49.40,1015.65,2030.98,3412.42,3189.73,3492.05,600.26,590.38,5.93,0000 0000 0000 0000 000000
2015-08-27 02:59:38,0.01,0.12,0.00,25.66,29.32,31.97,14.30,49.52,1015.71,2030.98,3412.01,3189.10,3491.97,599.88,590.08,5.98,0000 0000 0000 0000 000000
2015-08-27 03:04:39,0.01,0.12,0.00,25.68,29.33,31.96,14.43,49.50,1015.92,2030.96,3411.99,3189.01,3491.49,600.23,590.54,6.03,0000 0000 0000 0000 000000
2015-08-27 03:09:41,-0.03,0.12,0.00,25.70,29.35,31.97,14.35,49.71,1016.00,2030.56,3411.42,3188.88,3491.01,599.98,590.28,6.08,0000 0000 0000 0000 000000
2015-08-27 03:14:42,0.04,0.12,0.00,25.71,29.36,32.01,14.37,49.73,1016.11,2030.41,3411.01,3188.26,3490.85,599.90,590.17,6.13,0000 0000 0000 0000 000000
2015-08-27 03:19:44,-0.01,0.12,0.00,25.73,29.37,32.00,14.35,49.62,1016.13,2030.28,3410.84,3188.01,3490.14,600.07,590.28,6.18,0000 0000 0000 0000 000000
2015-08-27 03:24:45,-0.00,0.12,0.00,25.74,29.39,32.00,14.30,49.38,1016.22,2030.11,3410.11,3187.99,3490.00,599.97,590.38,6.23,0000 0000 0000 0000 000000
2015-08-27 03:29:46,0.01,0.12,0.00,25.77,29.40,32.01,14.32,49.44,1016.38,2030.06,3409.99,3187.63,3489.80,599.95,590.26,6.28,0000 0000 0000 0000 000000
2015-08-27 03:34:48,0.02,0.12,0.00,25.77,29.41,32.05,14.30,49.58,1016.53,2030.02,3409.75,3187.07,3489.08,600.07,590.52,6.33,0000 0000 0000 0000 000000
2015-08-27 03:39:49,0.01,0.12,0.00,25.80,29.42,32.05,14.34,49.58,1016.61,2030.01,3409.06,3187.00,3489.00,600.04,590.49,6.38,0000 0000 0000 0000 000000
2015-08-27 03:44:50,0.03,0.12,0.00,25.82,29.44,32.06,14.35,49.59,1016.61,2030.00,3408.72,3186.60,3488.37,600.12,590.55,6.43,0000 0000 0000 0000 000000
2015-08-27 03:49:51,0.01,0.13,0.00,25.83,29.45,32.07,14.28,49.35,1016.62,2030.00,3408.06,3186.06,3488.01,599.84,590.22,6.48,0000 0000 0000 0000 000000
2015-08-27 03:54:53,0.00,0.13,0.00,25.86,29.47,32.08,14.38,49.52,1016.62,2030.00,3407.96,3185.98,3487.83,599.89,590.31,6.53,0000 0000 0000 0000 000000
2015-08-27 03:59:54,0.03,0.13,0.00,25.87,29.48,32.10,14.32,49.31,1016.62,2029.98,3407.31,3185.61,3487.09,599.80,590.12,6.58,0000 0000 0000 0000 000000
2015-08-27 04:04:55,0.01,0.13,0.00,25.90,29.50,32.10,14.36,49.43,1016.62,2029.96,3406.89,3185.03,3486.98,599.93,590.10,6.63,0000 0000 0000 0000 000000
2015-08-27 04:09:56,0.01,0.13,0.00,25.90,29.51,32.13,14.35,49.48,1016.62,2029.91,3406.13,3184.95,3486.36,600.03,590.19,6.68,0000 0000 0000 0000 000000
2015-08-27 04:14:58,0.00,0.13,0.00,25.90,29.52,32.13,14.22,49.44,1016.65,2029.79,3405.87,3184.38,3486.01,599.55,589.86,6.73,0000 0000 0000 0000 000000
2015-08-27 04:19:59,-0.01,0.13,0.00,25.92,29.54,32.16,14.37,49.50,1016.71,2029.47,3405.34,3184.02,3485.93,600.26,590.52,6.78,0000 0000 0000 0000 000000
2015-08-27 04:25:00,0.00,0.13,0.00,25.92,29.55,32.18,14.33,49.77,1016.82,2029.25,3405.01,3183.99,3485.19,599.62,589.97,6.83,0000 0000 0000 0000 000000
2015-08-27 04:30:02,-0.01,0.13,0.00,25.95,29.57,32.19,14.35,49.73,1016.87,2029.11,3404.94,3183.81,3485.00,599.89,590.20,6.88,0000 0000 0000 0000 000000
2015-08-27 04:35:03,0.02,0.13,0.00,25.97,29.58,32.21,14.36,49.65,1016.91,2029.02,3404.55,3183.13,3484.73,599.96,590.25,6.93,0000 0000 0000 0000 000000
2015-08-27 04:40:04,0.01,0.13,0.00,26.00,29.60,32.20,14.32,49.68,1017.08,2029.00,3404.01,3182.94,3484.04,599.77,590.18,6.98,0000 0000 0000 0000 000000
2015-08-27 04:45:06,0.02,0.13,0.00,26.02,29.61,32.20,14.31,49.66,1017.10,2029.00,3403.52,3182.37,3483.96,600.07,590.43,7.03,0000 0000 0000 0000 000000
2015-08-27 04:50:07,0.01,0.13,0.00,26.05,29.62,32.21,14.35,49.69,1017.10,2029.00,3403.04,3182.02,3483.61,599.97,590.39,7.08,0000 0000 0000 0000 000000
2015-08-27 04:55:08,0.00,0.14,0.00,26.08,29.64,32.21,14.29,49.61,1017.10,2029.00,3402.95,3182.00,3483.05,600.08,590.26,7.13,0000 0000 0000 0000 000000
2015-08-27 05:00:09,0.01,0.14,0.00,26.10,29.65,32.23,14.39,49.77,1017.10,2028.99,3402.22,3181.82,3482.99,600.05,590.19,7.18,0000 0000 0000 0000 000000
2015-08-27 05:05:10,0.02,0.14,0.00,26.13,29.67,32.26,14.29,49.80,1017.10,2028.99,3401.98,3181.11,3482.57,599.87,589.94,7.23,0000 0000 0000 0000 000000
2015-08-27 05:10:12,0.01,0.14,0.00,26.15,29.69,32.25,14.39,50.02,1017.11,2028.98,3401.51,3181.00,3482.05,599.76,589.86,7.28,0000 0000 0000 0000 000000
2015-08-27 05:15:13,0.00,0.14,0.00,26.16,29.70,32.26,14.35,49.82,1017.11,2028.94,3401.02,3180.88,3481.94,600.06,590.12,7.33,0000 0000 0000 0000 000000
2015-08-27 05:20:14,0.03,0.14,0.00,26.18,29.72,32.28,14.25,49.69,1017.12,2028.87,3400.78,3180.19,3481.32,599.77,589.77,7.38,0000 0000 0000 0000 000000
2015-08-27 05:25:15,-0.01,0.14,0.00,26.20,29.74,32.32,14.34,49.76,1017.12,2028.64,3400.05,3180.00,3481.00,600.19,590.33,7.43,0000 0000 0000 0000 000000
2015-08-27 05:30:16,-0.01,0.14,0.00,26.23,29.75,32.30,14.34,49.63,1017.15,2028.32,3399.70,3179.80,3480.81,599.53,589.26,7.48,0000 0000 0000 0000 000000
2015-08-27 05:35:17,0.01,0.14,0.00,26.25,29.77,32.32,14.35,49.89,1017.18,2028.05,3399.05,3179.06,3480.05,600.00,589.87,7.53,0000 0000 0000 0000 000000
2015-08-27 05:40:18,0.00,0.14,0.00,26.27,29.78,32.33,14.42,49.94,1017.31,2028.01,3398.89,3179.00,3479.97,600.26,590.15,7.58,0000 0000 0000 0000 000000
2015-08-27 05:45:20,0.04,0.14,0.00,26.30,29.80,32.35,14.44,50.15,1017.49,2028.00,3398.13,3178.54,3479.28,600.11,590.10,7.63,0000 0000 0000 0000 000000
2015-08-27 05:50:21,0.00,0.14,0.00,26.30,29.82,32.37,14.39,49.88,1017.59,2028.00,3397.99,3178.04,3479.01,600.21,590.34,7.68,0000 0000 0000 0000 000000
2015-08-27 05:55:22,0.00,0.14,0.00,26.32,29.84,32.39,14.35,50.18,1017.59,2028.00,3397.75,3178.00,3478.96,600.03,589.97,7.73,0000 0000 0000 0000 000000
2015-08-27 06:00:24,0.02,0.14,0.00,26.35,29.85,32.42,14.33,49.59,1017.59,2027.99,3397.07,3177.86,3478.35,599.67,589.62,7.78,0000 0000 0000 0000 000000
2015-08-27 06:05:25,0.02,0.15,0.00,26.36,29.87,32.42,14.35,49.80,1017.59,2027.99,3396.83,3177.15,3478.00,599.76,589.68,7.83,0000 0000 0000 0000 000000
2015-08-27 06:10:27,0.02,0.15,0.00,26.37,29.89,32.44,14.42,49.97,1017.59,2027.98,3396.07,3177.00,3477.72,599.92,589.68,7.88,0000 0000 0000 0000 000000
2015-08-27 06:15:28,0.02,0.15,0.00,26.40,29.91,32.46,14.31,50.06,1017.50,2027.89,3395.69,3176.56,3477.02,599.91,589.85,7.93,0000 0000 0000 0000 000000
2015-08-27 06:20:30,-0.02,0.15,0.00,26.42,29.92,32.48,14.38,50.23,1017.37,2027.44,3395.03,3176.01,3476.30,599.62,589.26,7.99,0000 0000 0000 0000 000000
2015-08-27 06:25:31,0.06,0.15,0.00,26.45,29.95,32.52,14.27,50.10,1017.53,2027.15,3394.32,3175.21,3475.33,599.58,589.23,8.04,0000 0000 0000 0000 000000
2015-08-27 06:30:32,0.07,0.15,0.00,26.46,29.96,32.54,14.34,49.92,1017.60,2027.09,3392.80,3173.20,3473.67,600.20,590.05,8.09,0000 0000 0000 0000 000000
2015-08-27 06:35:33,0.01,0.15,0.00,26.47,29.97,32.54,14.26,49.78,1017.73,2027.02,3392.09,3172.99,3473.03,600.00,589.78,8.14,0000 0000 0000 0000 000000
2015-08-27 06:40:35,0.01,0.15,0.00,26.48,30.00,32.59,14.34,49.91,1017.99,2027.01,3391.97,3172.60,3472.99,599.82,589.81,8.19,0000 0000 0000 0000 000000
2015-08-27 06:45:36,0.02,0.16,0.00,26.50,30.01,32.59,14.39,49.88,1018.08,2027.01,3391.39,3172.05,3472.67,599.85,589.83,8.24,0000 0000 0000 0000 000000
2015-08-27 06:50:37,0.00,0.16,0.00,26.51,30.02,32.61,14.40,49.90,1018.08,2027.00,3391.01,3172.00,3472.08,600.65,590.50,8.29,0000 0000 0000 0000 000000
2015-08-27 06:55:39,0.00,0.16,0.00,26.52,30.04,32.62,14.32,49.67,1018.13,2027.00,3391.00,3171.97,3472.00,600.10,590.02,8.34,0000 0000 0000 0000 000000
2015-08-27 07:00:40,0.02,0.16,0.00,26.55,30.05,32.64,14.39,49.77,1018.24,2027.00,3390.82,3171.57,3471.85,600.57,590.55,8.39,0000 0000 0000 0000 000000
2015-08-27 07:05:41,0.03,0.16,0.00,26.56,30.07,32.67,14.49,49.88,1018.52,2027.00,3390.04,3171.01,3471.10,600.52,590.53,8.44,0000 0000 0000 0000 000000
2015-08-27 07:10:42,0.00,0.16,0.00,26.59,30.09,32.67,14.40,49.86,1018.57,2026.98,3389.93,3170.98,3471.00,599.85,589.99,8.49,0000 0000 0000 0000 000000
2015-08-27 07:15:44,0.02,0.16,0.00,26.61,30.10,32.68,14.32,49.55,1018.58,2026.98,3389.27,3170.76,3470.90,599.93,589.92,8.54,0000 0000 0000 0000 000000
2015-08-27 07:20:45,0.03,0.16,0.00,26.64,30.12,32.70,14.25,49.51,1018.60,2026.98,3389.01,3170.09,3470.27,599.87,589.85,8.59,0000 0000 0000 0000 000000
2015-08-27 07:25:46,-0.00,0.16,0.00,26.65,30.13,32.70,14.33,49.61,1018.73,2026.94,3388.90,3170.00,3470.01,600.13,590.06,8.64,0000 0000 0000 0000 000000
2015-08-27 07:30:47,-0.00,0.16,0.00,26.67,30.15,32.73,14.40,49.63,1018.97,2026.81,3388.18,3169.92,3469.90,599.99,590.10,8.69,0000 0000 0000 0000 000000
2015-08-27 07:35:48,0.00,0.16,0.00,26.68,30.17,32.74,14.28,49.52,1019.04,2026.45,3387.99,3169.33,3469.25,599.72,589.85,8.74,0000 0000 0000 0000 000000
2015-08-27 07:40:49,-0.00,0.16,0.00,26.69,30.17,32.76,14.31,49.58,1019.06,2026.36,3387.58,3169.02,3469.01,600.20,590.31,8.79,0000 0000 0000 0000 000000
2015-08-27 07:45:51,-0.01,0.16,0.00,26.70,30.20,32.78,14.37,49.67,1019.06,2026.08,3387.02,3168.98,3468.91,599.85,590.08,8.84,0000 0000 0000 0000 000000
2015-08-27 07:50:52,0.02,0.16,0.00,26.70,30.20,32.80,14.37,49.52,1019.08,2026.06,3386.96,3168.77,3468.26,599.76,590.07,8.89,0000 0000 0000 0000 000000
2015-08-27 07:55:53,0.02,0.16,0.00,26.70,30.22,32.84,14.33,49.40,1019.15,2026.03,3386.33,3168.23,3468.03,600.15,590.31,8.94,0000 0000 0000 0000 000000
2015-08-27 08:00:55,0.00,0.16,0.00,26.71,30.22,32.85,14.39,49.38,1019.42,2026.01,3386.00,3168.01,3468.00,599.98,590.48,8.99,0000 0000 0000 0000 000000
2015-08-27 08:05:56,0.00,0.16,0.00,26.72,30.25,32.89,14.31,49.20,1019.48,2026.01,3385.98,3168.00,3467.95,600.01,590.22,9.04,0000 0000 0000 0000 000000
2015-08-27 08:10:57,0.03,0.16,0.00,26.72,30.25,32.90,14.40,49.39,1019.55,2026.00,3385.43,3167.84,3467.37,599.98,590.32,9.09,0000 0000 0000 0000 000000
2015-08-27 08:15:59,0.02,0.17,0.00,26.73,30.26,32.90,14.36,49.35,1019.55,2026.00,3385.00,3167.11,3467.00,600.04,590.42,9.14,0000 0000 0000 0000 000000
2015-08-27 08:21:00,0.00,0.17,0.00,26.76,30.27,32.91,14.39,49.24,1019.55,2026.00,3384.88,3167.01,3466.95,600.22,590.48,9.19,0000 0000 0000 0000 000000
2015-08-27 08:26:01,0.02,0.17,0.00,26.79,30.28,32.90,14.40,49.27,1019.57,2026.00,3384.28,3166.98,3466.41,600.10,590.28,9.24,0000 0000 0000 0000 000000
2015-08-27 08:31:02,0.01,0.17,0.00,26.82,30.30,32.92,14.35,49.49,1019.68,2026.00,3384.03,3166.82,3466.02,600.25,590.54,9.29,0000 0000 0000 0000 000000
2015-08-27 08:36:03,0.01,0.17,0.00,26.82,30.31,32.94,14.31,49.43,1019.93,2025.99,3384.00,3166.23,3466.00,599.77,590.13,9.34,0000 0000 0000 0000 000000
2015-08-27 08:41:04,0.00,0.17,0.00,26.85,30.32,32.95,14.36,49.34,1020.02,2025.99,3383.96,3166.01,3465.82,600.08,590.30,9.39,0000 0000 0000 0000 000000
2015-08-27 08:46:06,0.01,0.17,0.00,26.87,30.34,32.96,14.26,49.24,1020.03,2025.98,3383.59,3166.00,3465.18,599.70,590.26,9.44,0000 0000 0000 0000 000000
2015-08-27 08:51:07,0.00,0.17,0.00,26.89,30.35,32.98,14.31,49.42,1020.04,2025.94,3383.07,3165.96,3465.02,600.26,590.52,9.49,0000 0000 0000 0000 000000
2015-08-27 08:56:08,0.01,0.17,0.00,26.91,30.37,32.99,14.44,49.46,1020.06,2025.92,3383.00,3165.75,3465.00,599.96,590.22,9.54,0000 0000 0000 0000 000000
2015-08-27 09:01:09,-0.00,0.17,0.00,26.93,30.38,32.99,14.46,49.32,1020.04,2025.71,3382.90,3165.13,3464.87,600.27,590.25,9.59,0000 0000 0000 0000 000000
2015-08-27 09:06:10,0.00,0.17,0.00,26.95,30.40,33.02,14.34,49.35,1020.06,2025.48,3382.34,3165.00,3464.23,600.08,590.20,9.64,0000 0000 0000 0000 000000
2015-08-27 09:11:12,-0.02,0.17,0.00,26.98,30.41,33.03,14.31,49.27,1020.14,2025.34,3382.04,3165.00,3464.02,599.86,589.81,9.69,0000 0000 0000 0000 000000
2015-08-27 09:16:13,-0.01,0.17,0.00,27.00,30.42,33.05,14.32,49.27,1020.22,2025.13,3381.98,3164.82,3463.99,599.90,590.08,9.74,0000 0000 0000 0000 000000
2015-08-27 09:21:14,0.01,0.17,0.00,27.02,30.45,33.07,14.38,49.33,1020.37,2025.02,3381.73,3164.23,3463.81,600.06,590.28,9.79,0000 0000 0000 0000 000000
2015-08-27 09:26:16,0.02,0.17,0.00,27.05,30.46,33.06,14.25,49.29,1020.44,2025.04,3381.16,3164.04,3463.26,599.73,590.08,9.84,0000 0000 0000 0000 000000
2015-08-27 09:31:17,0.00,0.17,0.00,27.06,30.47,33.07,14.26,49.32,1020.46,2025.01,3381.00,3164.00,3463.01,600.14,590.33,9.89,0000 0000 0000 0000 000000
2015-08-27 09:36:18,0.00,0.17,0.00,27.10,30.50,33.09,14.41,49.48,1020.51,2025.00,3380.92,3163.94,3462.98,600.01,590.11,9.94,0000 0000 0000 0000 000000
2015-08-27 09:41:19,0.04,0.17,0.00,27.12,30.51,33.10,14.37,49.38,1020.52,2025.00,3380.19,3163.23,3462.34,599.95,590.05,9.99,0000 0000 0000 0000 000000
2015-08-27 09:46:20,0.00,0.17,0.00,27.14,30.52,33.09,14.29,49.30,1020.53,2025.00,3380.00,3163.04,3462.03,600.19,590.25,10.04,0000 0000 0000 0000 000000
2015-08-27 09:51:22,0.00,0.18,0.00,27.16,30.55,33.08,14.35,49.26,1020.52,2025.00,3379.99,3163.00,3462.00,599.98,589.89,10.09,0000 0000 0000 0000 000000
2015-08-27 09:56:23,0.00,0.18,0.00,27.19,30.56,33.07,14.36,49.33,1020.53,2024.99,3379.84,3162.99,3461.96,600.09,590.11,10.14,0000 0000 0000 0000 000000
2015-08-27 10:01:24,0.03,0.18,0.00,27.21,30.57,33.10,14.35,49.26,1020.53,2024.98,3379.08,3162.65,3461.47,600.05,589.97,10.19,0000 0000 0000 0000 000000
2015-08-27 10:06:26,0.01,0.18,0.00,27.23,30.60,33.12,14.26,49.20,1020.55,2024.95,3379.00,3162.10,3461.04,599.95,590.01,10.24,0000 0000 0000 0000 000000
2015-08-27 10:11:27,-0.02,0.18,0.00,27.25,30.61,33.10,14.28,49.20,1020.55,2024.75,3378.93,3162.00,3460.99,600.08,589.84,10.30,0000 0000 0000 0000 000000
2015-08-27 10:16:28,-0.00,0.18,0.00,27.27,30.62,33.11,14.36,49.46,1020.59,2024.63,3378.79,3162.00,3460.96,600.12,589.98,10.35,0000 0000 0000 0000 000000
2015-08-27 10:21:29,-0.01,0.18,0.00,27.27,30.65,33.11,14.39,49.24,1020.68,2024.30,3378.19,3161.96,3460.55,600.14,590.04,10.40,0000 0000 0000 0000 000000
2015-08-27 10:26:31,0.00,0.18,0.00,27.30,30.66,33.13,14.34,49.23,1020.79,2024.07,3377.99,3161.44,3460.05,600.02,589.97,10.45,0000 0000 0000 0000 000000
2015-08-27 10:31:32,0.01,0.18,0.00,27.30,30.68,33.14,14.35,49.23,1020.96,2024.05,3377.85,3161.02,3460.00,600.02,589.99,10.50,0000 0000 0000 0000 000000
2015-08-27 10:36:33,0.01,0.18,0.00,27.32,30.70,33.15,14.41,49.24,1021.00,2024.03,3377.29,3161.00,3459.90,600.12,590.11,10.55,0000 0000 0000 0000 000000
2015-08-27 10:41:34,0.01,0.18,0.00,27.34,30.71,33.16,14.23,49.27,1021.01,2024.01,3377.01,3160.99,3459.27,599.71,589.70,10.60,0000 0000 0000 0000 000000
2015-08-27 10:46:36,0.02,0.18,0.00,27.36,30.72,33.18,14.31,49.11,1021.01,2024.00,3376.84,3160.67,3459.03,599.87,589.78,10.65,0000 0000 0000 0000 000000
2015-08-27 10:51:37,0.03,0.18,0.00,27.38,30.73,33.19,14.21,49.04,1021.02,2024.00,3376.04,3160.00,3458.42,599.53,589.55,10.70,0000 0000 0000 0000 000000
2015-08-27 10:56:39,0.05,0.18,0.00,27.40,30.75,33.22,14.34,49.23,1021.02,2024.00,3375.18,3159.25,3457.62,599.75,589.63,10.75,0000 0000 0000 0000 000000
2015-08-27 11:01:40,0.04,0.18,0.00,27.46,30.75,33.23,14.33,49.25,1021.05,2024.00,3374.22,3158.57,3456.96,600.07,589.76,10.80,0000 0000 0000 0000 000000
2015-08-27 11:06:42,0.02,0.19,0.00,27.58,30.77,33.24,14.19,48.98,1021.07,2023.99,3373.77,3158.01,3456.16,599.88,589.32,10.85,0000 0000 0000 0000 000000
2015-08-27 11:11:43,0.01,0.19,0.00,27.65,30.77,33.27,14.31,49.22,1021.05,2023.99,3373.09,3157.84,3455.98,600.09,589.46,10.90,0000 0000 0000 0000 000000
2015-08-27 11:16:44,0.03,0.19,0.00,27.63,30.78,33.30,14.34,49.25,1021.11,2023.98,3372.94,3157.13,3455.40,600.09,589.55,10.95,0000 0000 0000 0000 000000
2015-08-27 11:21:45,0.01,0.19,0.00,27.54,30.80,33.35,14.22,48.98,1021.29,2023.97,3372.27,3157.00,3455.02,599.56,589.25,11.00,0000 0000 0000 0000 000000
2015-08-27 11:26:47,0.00,0.19,0.00,27.46,30.80,33.42,14.24,49.06,1021.44,2023.91,3372.00,3156.93,3454.96,600.14,590.02,11.05,0000 0000 0000 0000 000000
2015-08-27 11:31:48,0.01,0.19,0.00,27.39,30.80,33.47,14.17,48.86,1021.40,2023.91,3371.97,3156.63,3454.75,599.54,589.63,11.10,0000 0000 0000 0000 000000
2015-08-27 11:36:49,0.02,0.19,0.00,27.34,30.80,33.52,14.42,49.33,1021.43,2023.81,3371.44,3156.12,3454.15,600.28,590.43,11.15,0000 0000 0000 0000 000000
2015-08-27 11:41:50,0.01,0.19,0.00,27.29,30.80,33.51,14.37,49.16,1021.48,2023.87,3371.07,3156.02,3454.02,600.09,590.36,11.20,0000 0000 0000 0000 000000
2015-08-27 11:46:51,-0.00,0.19,0.00,27.24,30.80,33.54,14.38,49.17,1021.50,2023.89,3371.02,3156.01,3454.00,600.39,590.83,11.25,0000 0000 0000 0000 000000
2015-08-27 11:51:53,0.00,0.19,0.00,27.21,30.80,33.56,14.33,49.06,1021.47,2023.81,3370.99,3156.00,3453.99,599.92,590.41,11.30,0000 0000 0000 0000 000000
2015-08-27 11:56:54,0.00,0.19,0.00,27.18,30.80,33.56,14.35,49.22,1021.49,2023.84,3370.76,3155.99,3453.97,600.20,590.76,11.35,0000 0000 0000 0000 000000
2015-08-27 12:01:55,0.02,0.19,0.00,27.16,30.78,33.54,14.31,49.00,1021.49,2023.79,3370.08,3155.87,3453.45,599.90,590.34,11.40,0000 0000 0000 0000 000000
2015-08-27 12:06:56,0.02,0.19,0.00,27.14,30.77,33.57,14.41,49.17,1021.48,2023.82,3370.00,3155.28,3453.04,600.18,590.63,11.45,0000 0000 0000 0000 000000
2015-08-27 12:11:57,0.01,0.19,0.00,27.11,30.77,33.56,14.33,49.16,1021.49,2023.87,3369.85,3155.03,3453.00,599.95,590.50,11.50,0000 0000 0000 0000 000000
2015-08-27 12:16:58,0.02,0.20,0.00,27.09,30.77,33.56,14.32,48.89,1021.50,2023.89,3369.10,3155.00,3452.84,599.97,590.64,11.55,0000 0000 0000 0000 000000
2015-08-27 12:22:00,0.01,0.20,0.00,27.07,30.75,33.56,14.34,48.92,1021.50,2023.90,3369.00,3154.92,3452.11,599.84,590.69,11.60,0000 0000 0000 0000 000000
2015-08-27 12:27:01,0.02,0.20,0.00,27.05,30.75,33.56,14.39,49.07,1021.49,2023.92,3368.83,3154.47,3452.01,599.93,590.82,11.65,0000 0000 0000 0000 000000
2015-08-27 12:32:02,0.01,0.20,0.00,27.02,30.75,33.54,14.33,49.14,1021.49,2023.93,3368.11,3154.04,3451.99,600.15,591.07,11.70,0000 0000 0000 0000 000000
2015-08-27 12:37:03,0.00,0.20,0.00,27.01,30.73,33.53,14.42,49.01,1021.50,2023.97,3368.00,3154.01,3451.88,599.71,590.59,11.75,0000 0000 0000 0000 000000
2015-08-27 12:42:05,0.01,0.20,0.00,26.99,30.72,33.52,14.31,49.22,1021.50,2023.96,3367.99,3154.00,3451.39,599.80,590.78,11.80,0000 0000 0000 0000 000000
2015-08-27 12:47:06,0.01,0.20,0.00,26.96,30.71,33.51,14.35,49.06,1021.50,2023.98,3367.65,3153.98,3451.07,599.78,590.88,11.85,0000 0000 0000 0000 000000
2015-08-27 12:52:07,0.01,0.20,0.00,26.95,30.70,33.50,14.36,49.11,1021.50,2023.98,3367.04,3153.76,3451.00,600.01,591.06,11.90,0000 0000 0000 0000 000000
2015-08-27 12:57:08,0.00,0.20,0.00,26.91,30.69,33.48,14.35,49.00,1021.50,2023.98,3367.00,3153.37,3451.00,599.98,591.06,11.95,0000 0000 0000 0000 000000
2015-08-27 13:02:10,0.01,0.20,0.00,26.89,30.67,33.48,14.42,49.14,1021.51,2023.99,3366.96,3153.09,3450.97,600.43,591.63,12.00,0000 0000 0000 0000 000000